Location: ?????
(32.7281°N, 34.9563°E)
Time: 11:33:15
(UTC+00:00)

Cosmos 44 Rocket - Pass Details

Date: 29 October 2020
Orbit: 642 x 748 km, 65.1° (Epoch: 26 November)

Event Time Altitude Azimuth Distance (km) Brightness Sun altitude
Rises 16:30:33 0° 225° (SW) 2,962 7.3 -21.3°
Reaches altitude 10° 16:32:56 10° 233° (SW) 2,067 6.5 -21.8°
Maximum altitude 16:37:20 39° 303° (WNW) 998 4.5 -22.7°
Enters shadow 16:41:11 14° 9° (N) 1,886 5.4 -23.5°
